ECMWFFLT1_925_rhum_300.txt.gz
RH
63 62 61 58 56 53 49 47 47 45 45 46 47 48 50 50 54 61 64 63 64 65 65 64 63 62 61 60 60 60 59 59 58 57 57 57 57 57 55 55 57 61 59 50 41 38 36 34 32 30 28 27 26 25 24 24 23 23 24 23 22 21 20
66 66 66 65 63 60 56 52 48 46 47 47 47 47 47 47 48 50 52 54 56 55 54 54 55 55 54 54 54 53 53 52 50 49 48 49 50 51 51 51 52 55 57 54 46 41 39 37 34 32 31 30 28 27 24 23 23 22 23 22 20 21 20
68 68 68 68 68 68 66 63 60 56 52 50 50 49 49 48 49 49 50 51 51 50 50 51 53 53 52 51 52 51 51 50 48 47 46 46 46 47 48 48 48 51 55 55 50 45 42 40 38 35 33 31 28 27 25 23 22 21 21 22 21 22 21
67 70 71 72 72 72 72 71 71 70 67 65 61 57 54 52 51 51 51 52 51 51 51 51 52 52 52 52 53 53 53 52 51 50 49 48 48 48 48 48 48 48 51 54 53 48 45 43 41 38 35 32 29 27 26 24 23 23 23 23 24 24 23
56 62 68 73 77 77 77 76 76 75 75 75 75 73 69 64 60 57 55 54 54 54 55 55 55 54 54 54 55 55 55 55 53 52 52 52 52 51 51 50 50 49 50 54 55 52 48 45 43 41 38 35 32 29 28 27 26 26 26 27 27 27 25
49 55 60 67 74 76 78 79 79 79 78 78 78 78 78 77 74 71 67 63 60 58 58 57 58 58 59 59 60 59 59 57 56 55 55 55 55 54 54 54 54 53 53 55 56 55 53 51 47 45 42 39 35 33 31 31 31 31 30 31 33 32 30
51 53 56 60 63 67 71 72 74 78 80 80 80 80 81 83 84 84 83 81 78 74 70 66 62 61 60 60 61 61 62 62 61 60 59 59 58 58 58 59 59 58 59 60 60 58 57 56 53 50 47 45 40 37 35 35 38 39 36 36 38 39 37
60 54 54 55 57 60 61 63 69 74 74 76 81 87 91 93 94 95 95 95 95 93 91 86 81 76 71 68 65 63 62 61 62 64 64 63 63 63 64 65 65 65 65 64 64 63 60 58 57 54 53 52 49 47 46 43 43 43 41 40 39 38 38
76 68 59 57 61 62 61 65 69 71 77 85 92 96 99 99 100 100 99 99 99 98 99 98 96 93 90 86 82 77 73 68 64 64 65 65 66 67 67 69 70 70 69 68 67 66 63 62 61 58 57 59 57 55 52 46 44 44 42 41 40 38 38
92 82 70 69 73 71 75 78 70 69 84 98 100 99 100 100 100 100 99 100 100 99 100 99 99 98 97 95 94 91 88 84 79 73 70 68 67 68 69 71 73 73 71 71 70 67 65 66 66 61 58 60 58 55 53 49 48 49 46 45 47 45 42
98 84 74 86 92 88 93 92 77 77 94 102 99 99 100 100 100 100 100 100 100 100 100 100 100 100 99 98 97 96 94 91 89 86 82 78 74 72 71 72 74 75 73 72 71 69 66 67 67 63 60 60 58 58 57 54 52 52 51 52 55 52 47
100 83 73 91 101 98 101 95 84 91 100 99 100 100 100 100 100 100 100 99 100 100 100 100 100 100 100 100 100 99 97 95 93 91 88 86 82 79 76 74 75 76 75 74 73 72 70 69 68 67 64 62 61 62 61 58 57 57 56 56 56 53 51
98 80 73 91 101 100 99 90 86 98 102 99 101 100 99 101 100 99 100 100 100 100 99 98 98 97 98 99 99 100 100 99 98 95 92 90 87 84 82 78 76 76 76 76 76 75 73 70 69 69 67 64 63 62 63 64 64 62 60 60 59 54 51
95 77 73 91 101 99 94 82 81 97 102 99 100 100 99 101 100 99 100 100 100 100 99 99 98 98 97 96 96 98 100 100 100 99 98 96 93 91 87 84 81 79 78 79 82 82 79 74 71 70 68 66 64 62 62 65 66 66 65 63 59 55 52
90 77 74 89 100 97 90 77 78 95 103 100 100 100 100 100 99 100 100 100 100 99 99 99 98 99 100 98 97 98 98 99 100 100 100 100 99 97 94 91 89 85 82 80 82 84 84 80 77 75 72 70 68 66 63 63 62 62 62 62 61 61 62
82 76 76 87 96 94 88 75 73 86 96 99 101 100 100 101 99 98 98 97 99 100 99 98 97 98 99 100 100 100 98 98 99 99 99 100 101 100 99 97 94 91 90 88 86 85 85 83 81 82 81 78 76 75 70 67 67 66 67 72 75 75 74
81 78 79 86 91 91 89 79 71 73 79 92 102 101 100 102 100 97 96 93 95 100 100 98 98 98 97 97 96 95 95 95 95 94 94 96 98 99 100 101 98 96 94 93 92 91 89 90 91 94 95 92 90 88 82 78 78 76 77 81 82 80 78
89 84 79 85 90 93 94 87 78 73 73 85 101 103 100 102 101 100 98 96 96 98 99 99 99 98 98 98 96 94 94 96 96 95 94 96 97 97 97 97 98 98 97 94 92 90 88 90 92 95 99 99 99 98 94 90 85 78 78 83 81 75 74
93 87 76 75 81 88 93 90 82 76 72 81 98 103 102 102 103 102 101 100 99 99 100 101 100 99 99 99 97 97 98 98 97 96 95 96 99 100 99 95 94 96 98 96 95 93 90 89 87 85 89 94 98 100 100 98 92 81 76 80 79 73 73
83 84 75 70 76 83 86 86 83 79 76 81 92 101 103 102 102 102 102 102 100 99 100 99 98 99 100 100 99 100 100 100 99 98 97 96 99 101 99 96 95 98 99 98 97 96 94 92 90 87 86 90 95 100 100 100 99 91 82 78 77 76 75
77 86 81 75 80 82 79 80 84 85 83 81 87 98 103 101 99 100 102 103 101 100 100 99 98 99 99 101 102 100 100 101 100 99 100 99 99 98 95 92 94 98 100 100 99 98 97 95 95 95 94 93 95 98 100 100 101 98 92 85 80 78 77
84 93 92 86 84 81 77 80 85 87 86 85 88 94 98 98 99 100 102 103 101 99 100 100 99 99 99 102 102 100 101 102 100 100 101 100 99 99 97 95 94 95 99 101 100 100 100 100 99 99 98 97 96 96 98 99 100 101 99 94 86 80 79
94 99 100 95 90 85 84 85 86 87 88 89 89 87 87 94 101 103 102 102 102 101 101 100 99 98 100 102 102 100 101 101 101 100 100 100 100 100 99 99 98 97 100 101 101 100 101 100 99 100 99 98 95 93 94 96 98 99 100 100 95 88 83
100 102 102 100 97 93 89 87 88 88 89 91 90 84 83 93 103 104 102 102 102 101 101 101 100 100 101 102 101 101 101 100 100 100 100 100 101 100 100 100 100 100 101 100 100 101 101 100 99 99 99 95 90 87 87 91 96 99 100 100 100 97 92
102 101 102 101 100 96 91 88 88 89 89 90 89 83 85 95 102 102 101 101 101 101 101 100 100 100 101 101 101 101 101 101 100 100 100 100 100 100 100 100 100 101 101 100 101 101 100 100 99 98 95 89 85 86 88 93 97 100 101 100 100 100 99
104 103 102 101 99 97 94 92 91 91 90 88 86 86 91 97 99 100 100 99 99 99 97 97 99 100 100 101 101 100 101 103 101 96 93 94 97 101 101 100 100 101 100 100 101 100 100 99 96 94 92 90 91 94 94 95 97 99 100 101 100 100 100
105 105 102 100 99 98 98 97 95 93 90 88 89 93 97 98 98 99 99 98 98 97 96 98 100 100 98 98 97 96 96 98 96 91 88 89 94 99 102 101 101 101 101 101 100 99 100 99 97 96 97 96 97 98 94 94 97 99 100 101 101 101 101
104 105 102 100 100 100 100 100 97 94 93 94 97 99 100 100 100 100 101 100 99 99 100 101 100 99 96 95 94 94 93 92 91 90 90 90 91 97 102 100 98 100 101 101 101 100 100 100 100 101 100 98 98 98 95 95 99 101 101 101 102 103 101
103 102 101 101 100 100 102 102 100 97 96 97 98 98 99 100 101 102 103 101 99 100 102 102 101 99 98 96 96 97 96 95 94 93 92 90 90 96 100 99 98 100 101 100 100 101 100 100 102 101 100 100 102 100 98 97 100 103 103 101 102 102 99
100 101 103 103 101 101 102 103 101 99 99 99 98 99 100 101 101 102 102 99 98 99 101 102 102 101 99 98 99 101 100 98 98 98 97 94 92 94 98 99 96 96 99 100 101 101 100 101 103 104 102 103 104 102 99 100 102 103 103 101 102 102 100
88 95 100 103 103 102 102 101 101 100 100 100 100 100 100 100 101 101 100 99 100 101 102 102 103 101 100 99 101 102 101 100 101 102 101 99 96 94 96 99 97 95 96 98 99 100 101 101 102 103 103 103 103 102 102 103 103 102 102 101 100 101 100
81 85 91 97 102 104 104 103 102 102 101 100 100 100 100 100 100 100 99 99 99 102 103 103 103 102 102 102 102 102 101 100 102 103 103 103 104 99 95 97 99 99 99 98 96 97 99 99 100 101 102 102 103 102 103 104 103 100 100 101 100 101 100
80 81 85 91 96 98 99 102 103 102 100 99 100 100 100 100 100 100 100 100 101 103 104 103 103 104 104 103 103 102 101 100 101 103 103 104 106 103 97 94 96 100 102 101 98 95 95 96 98 100 100 100 101 101 102 103 102 100 100 101 102 102 100
82 82 85 89 90 89 91 95 98 100 101 101 101 101 100 100 100 100 99 96 96 100 103 103 104 105 104 104 103 102 102 101 100 101 102 102 103 103 100 96 95 99 102 101 100 99 97 96 97 100 101 100 100 100 100 101 102 102 101 101 101 101 100
88 83 83 88 90 89 88 88 90 95 100 102 102 100 99 100 101 102 99 93 92 97 102 104 105 106 104 103 103 102 103 103 101 100 101 101 101 102 101 99 99 100 102 102 102 103 101 98 98 100 102 103 102 101 101 100 101 102 102 102 101 100 99
95 88 84 86 88 88 89 87 87 92 99 102 101 100 101 102 103 104 103 99 98 99 101 102 103 104 103 103 103 104 104 102 101 101 100 101 102 102 101 101 101 101 102 104 104 104 102 101 101 102 103 104 103 101 102 102 100 100 102 102 102 102 101

ECMWFFLT1_925_rhum_306.txt.gz
RH
68 68 67 65 63 61 58 55 54 51 50 55 62 67 69 72 74 78 84 89 91 93 96 96 96 98 98 98 97 93 90 90 92 95 96 95 94 93 93 94 92 88 82 76 73 71 70 68 67 66 65 65 64 62 60 58 56 54 51 50 49 46 44
72 72 72 72 70 69 67 65 62 60 58 55 54 56 58 59 63 70 75 84 90 91 92 93 95 96 95 96 97 95 91 87 84 85 87 87 87 87 86 88 88 86 81 77 74 71 68 67 66 65 61 59 59 57 54 51 49 46 43 41 40 38 36
65 68 70 71 73 73 73 73 73 71 70 68 65 63 62 60 60 62 65 71 76 77 79 81 84 86 85 86 89 89 87 85 81 79 79 79 81 80 79 81 82 83 81 77 74 69 67 64 61 58 57 54 54 52 50 48 46 43 42 39 37 37 36
49 52 54 56 60 64 66 69 72 74 75 76 75 75 75 73 70 69 69 69 68 67 67 67 70 73 71 71 75 78 78 78 79 78 75 74 75 74 74 76 77 78 78 76 72 67 64 62 57 54 53 51 50 50 50 48 46 44 42 40 39 38 37
42 41 41 42 46 50 53 56 62 67 71 74 77 78 80 81 81 81 81 80 79 78 75 73 72 71 68 64 66 71 75 75 76 78 75 73 73 71 70 71 72 71 71 70 69 66 62 59 56 53 52 51 49 49 49 49 48 47 45 42 42 41 39
46 42 39 41 42 44 48 51 54 60 66 72 79 84 85 87 90 91 91 91 92 91 88 88 86 84 82 79 76 77 79 77 74 72 72 73 75 72 70 70 71 69 68 68 68 66 62 60 58 56 54 53 53 51 50 49 49 49 48 46 44 42 40
52 47 43 42 42 43 46 46 48 56 64 73 86 93 94 96 99 98 98 97 97 97 96 97 97 94 92 91 90 90 89 86 83 79 77 79 80 78 76 74 72 70 69 69 68 66 63 60 58 57 55 54 54 54 53 51 50 49 49 49 48 46 44
58 51 49 48 50 50 47 44 45 53 65 79 94 101 99 99 100 99 99 100 99 99 99 100 100 99 96 95 95 97 98 97 96 92 89 87 85 84 83 79 74 71 69 69 68 65 62 60 58 56 55 54 54 56 56 54 53 52 50 49 49 50 50
66 53 48 48 51 52 49 45 44 51 70 90 99 100 100 100 100 100 100 100 99 99 100 100 100 100 99 97 95 96 99 100 100 99 97 94 92 91 90 86 81 77 73 70 68 66 64 62 60 58 56 56 55 55 55 55 55 55 54 52 51 51 51
80 61 50 48 49 54 58 55 48 52 77 100 102 98 100 100 99 100 100 100 100 100 100 99 100 100 100 99 97 97 98 98 99 100 100 99 98 97 95 92 88 84 79 75 73 70 69 67 65 63 62 61 60 59 59 59 59 58 57 56 55 54 53
81 63 52 50 49 52 57 54 46 45 68 95 101 98 101 100 99 101 100 100 101 99 98 99 99 100 100 98 96 96 97 97 96 96 98 100 101 100 100 98 96 91 87 83 78 75 73 72 71 70 68 67 66 65 64 64 63 63 61 59 58 57 54
81 66 52 49 48 48 48 47 45 43 60 90 102 99 100 100 99 101 99 99 101 98 97 97 98 100 100 97 96 99 100 100 99 98 97 98 97 97 97 98 99 98 95 91 87 84 81 79 78 76 75 74 72 70 70 69 68 68 67 65 62 61 58
76 69 57 52 50 50 49 48 49 46 60 91 103 98 99 101 99 100 100 100 98 94 92 95 96 96 93 86 86 92 96 98 99 99 98 97 95 94 93 93 95 96 96 95 94 92 88 85 84 83 82 81 81 80 79 77 75 73 71 70 67 64 62
81 78 64 55 52 50 48 48 50 47 55 84 101 100 100 101 100 100 100 99 96 89 85 82 81 85 89 88 86 89 94 98 100 100 99 99 98 96 96 96 96 96 96 95 95 94 92 90 91 91 91 91 92 94 92 88 85 81 77 77 76 73 73
83 74 55 49 50 48 45 44 46 47 50 66 88 99 100 99 100 100 100 100 97 91 82 71 67 77 92 97 94 92 97 101 100 100 100 100 98 95 93 93 92 92 93 93 95 96 96 95 93 91 91 89 88 89 89 87 89 88 84 85 84 80 81
71 61 48 47 48 47 45 43 43 48 49 51 71 96 102 99 100 100 99 101 97 93 89 83 80 83 87 93 95 94 98 101 100 100 101 100 100 98 97 94 87 83 86 92 97 100 99 97 95 94 94 93 91 91 89 87 89 88 86 87 84 77 76
60 54 49 48 48 47 48 46 43 48 50 50 69 97 103 98 100 101 99 101 100 95 92 91 88 81 81 93 99 96 97 100 100 101 101 100 101 100 99 95 83 75 76 83 90 95 97 97 98 98 98 97 97 98 97 97 97 91 85 86 85 77 73
54 52 50 49 49 49 50 49 46 50 52 52 70 96 103 98 100 100 97 97 96 92 89 91 89 80 80 93 99 95 98 101 100 100 101 100 100 100 98 95 90 87 87 87 88 92 94 95 96 98 98 96 93 90 89 93 97 95 91 90 87 80 75
62 58 54 52 51 50 51 50 48 48 51 51 61 85 102 101 97 96 96 93 90 88 86 90 95 90 85 92 98 99 101 101 99 100 100 99 100 98 95 95 97 99 100 99 98 97 96 95 93 91 89 89 88 87 87 91 95 95 92 90 86 82 79
66 61 55 52 53 52 52 52 50 48 52 54 57 75 97 103 96 95 97 93 88 86 86 89 95 96 93 97 100 101 101 100 100 100 100 100 101 98 95 95 97 99 99 99 100 100 99 99 97 92 87 83 83 87 89 91 93 92 87 83 82 82 82
69 68 61 55 55 54 52 53 53 51 54 57 59 71 92 103 100 98 99 96 92 90 89 90 89 87 90 97 101 100 100 100 100 100 99 100 101 99 98 99 99 100 100 100 99 98 95 93 91 91 90 84 81 83 85 87 91 94 92 87 84 82 80
76 79 75 66 61 58 55 54 55 54 55 59 61 70 85 97 101 100 99 98 97 95 94 93 91 89 92 99 100 100 100 100 100 100 100 100 100 100 100 100 99 99 99 97 95 92 89 86 83 81 81 80 78 79 81 83 86 90 92 91 89 86 83
82 86 87 79 70 63 57 53 53 55 56 58 61 68 78 89 98 102 101 99 99 98 96 95 96 98 100 101 100 100 100 100 100 100 100 100 100 100 100 100 100 100 98 95 91 88 86 83 80 77 76 76 76 75 76 79 81 83 87 90 92 91 88
85 86 86 82 76 71 64 59 56 56 57 59 64 69 74 80 88 95 100 101 100 99 99 98 99 100 100 99 100 100 100 100 100 100 100 100 100 100 100 100 99 96 94 90 87 85 83 80 77 76 75 74 76 78 81 85 86 86 87 89 91 90 88
84 83 83 81 79 75 72 70 67 63 59 59 62 66 69 73 77 83 94 102 101 99 100 100 99 100 100 100 101 101 100 99 99 99 99 99 100 100 99 97 96 93 89 87 84 82 81 79 78 78 78 78 81 84 85 85 82 80 81 84 87 89 89
83 82 81 81 80 78 76 75 75 72 69 67 69 73 77 77 76 76 85 99 103 100 100 100 99 100 101 100 101 100 99 98 98 99 100 100 99 99 95 91 89 87 84 84 82 80 79 78 77 78 79 81 83 83 82 80 77 74 74 75 78 83 85
83 82 80 78 78 79 78 78 78 79 81 81 81 84 87 88 88 86 90 98 101 99 100 100 100 100 101 100 101 100 98 99 99 98 96 91 89 89 90 88 88 88 89 89 86 84 83 81 79 79 79 79 79 79 79 79 78 78 76 76 77 79 81
84 82 81 80 79 78 77 79 80 81 84 86 86 88 91 93 95 96 96 98 98 98 100 100 99 98 97 96 95 94 93 92 91 90 88 84 82 82 84 87 91 94 94 93 91 88 85 83 81 80 79 78 78 78 78 78 78 79 81 83 83 81 80
91 88 88 89 87 82 78 77 78 81 88 93 95 97 98 97 96 95 95 96 98 99 99 96 92 89 87 86 86 84 83 82 81 82 82 81 83 84 82 82 85 87 87 87 86 84 83 83 83 82 80 80 78 78 80 80 79 82 85 87 86 83 79
96 96 97 98 97 94 90 87 85 89 96 101 101 100 99 99 99 99 99 99 100 100 97 91 86 83 81 80 80 78 78 78 77 77 76 74 77 80 80 80 82 83 83 85 85 84 83 83 84 84 82 80 77 76 78 79 80 84 88 88 86 83 78
93 94 97 100 101 101 100 98 97 97 100 101 101 100 100 100 100 100 100 100 100 98 93 86 82 80 78 78 78 78 78 78 77 78 77 74 74 75 77 80 83 82 83 85 87 86 85 85 86 85 82 80 78 77 77 77 78 82 87 88 85 81 77
89 91 94 97 100 101 102 102 101 100 101 101 101 100 99 100 100 100 100 100 101 99 92 85 81 79 77 78 78 78 79 79 79 79 78 78 78 76 75 77 80 84 88 90 89 88 87 86 85 84 83 82 82 81 80 78 76 78 82 84 82 79 78
87 88 88 91 93 94 96 97 97 96 97 98 100 102 101 100 100 100 100 100 100 96 89 83 81 80 79 80 80 79 78 79 79 79 80 81 81 80 79 81 87 94 97 95 92 91 90 87 86 86 85 84 84 83 82 79 78 77 77 80 79 78 78
87 88 87 87 88 88 89 90 90 89 87 87 92 98 101 100 100 100 100 101 101 96 88 83 82 81 81 82 81 79 79 80 80 82 83 83 84 85 85 88 93 97 96 92 89 89 88 87 86 87 85 83 82 82 80 79 78 77 76 77 77 76 76
85 88 90 89 89 90 91 90 89 86 81 80 84 91 98 102 100 96 94 94 96 95 89 85 83 82 81 80 80 80 81 82 83 84 85 84 85 87 88 89 91 92 91 90 89 88 86 87 88 87 86 85 83 83 82 80 77 76 75 76 77 77 75
86 90 94 94 91 89 89 88 87 85 82 80 82 90 99 102 97 89 85 85 85 85 83 82 83 82 81 81 81 83 84 84 86 88 88 88 89 88 88 89 89 88 89 90 90 88 87 89 89 88 87 86 84 84 84 83 80 79 78 78 79 78 76

ECMWFFLT1_925_rhum_312.txt.gz
RH
64 65 68 72 76 80 83 84 83 82 81 79 79 81 82 83 86 91 93 93 91 91 92 93 94 95 96 96 97 97 97 98 98 98 98 99 100 100 100 100 99 99 95 88 84 81 77 76 76 75 73 72 71 70 69 68 69 72 75 79 82 82 79
67 66 65 65 66 68 71 74 76 79 82 83 82 82 81 80 80 81 84 86 88 89 92 93 94 95 95 96 97 96 96 96 96 96 97 97 98 98 97 98 98 99 97 93 88 85 82 79 76 74 72 71 70 69 67 66 65 66 66 68 70 72 69
74 73 72 70 69 67 66 66 67 70 73 78 82 84 86 85 83 82 81 82 83 85 87 90 92 94 95 96 97 97 96 96 95 94 95 95 95 96 95 94 94 95 96 94 89 85 83 80 77 73 70 68 66 66 67 66 64 64 64 63 62 61 59
77 76 76 75 74 73 72 70 69 68 69 72 76 80 84 85 88 90 88 87 86 85 84 84 85 86 87 89 92 93 93 94 94 92 91 90 89 88 88 87 87 88 88 88 88 84 80 79 76 73 69 64 62 62 64 64 63 63 63 62 60 57 53
75 76 75 75 76 76 75 74 73 72 71 72 75 79 81 80 83 88 90 91 91 90 91 90 88 86 85 85 86 86 86 87 88 87 86 85 84 81 80 79 78 78 78 79 81 80 77 75 72 70 66 63 61 59 59 58 58 57 57 58 59 58 56
70 71 72 73 74 75 75 75 75 74 73 73 76 83 87 85 83 84 85 87 89 90 92 94 95 95 94 94 93 90 87 85 85 84 82 80 80 79 79 77 74 73 73 74 75 75 74 73 71 68 65 62 59 58 57 55 53 52 52 53 54 55 55
68 68 69 69 69 71 72 73 74 73 75 76 77 85 92 91 88 86 85 89 94 95 95 96 98 98 97 98 99 99 97 95 93 90 86 83 81 78 77 76 74 71 70 70 71 71 72 70 68 66 64 61 58 56 56 55 54 55 54 53 53 53 53
69 68 68 67 67 68 68 69 71 70 73 76 79 87 95 95 92 90 85 85 88 90 93 96 96 96 97 99 99 98 99 99 98 97 96 93 90 88 86 84 81 79 78 76 74 74 73 70 69 68 66 63 61 60 58 55 56 57 55 55 54 54 54
67 70 71 67 64 64 65 67 69 68 68 72 79 91 98 97 97 96 91 85 80 81 86 90 90 92 95 98 101 101 101 100 100 100 100 99 97 96 96 94 92 89 86 84 83 81 77 75 74 71 68 66 63 63 63 60 60 62 61 60 60 59 58
60 68 75 74 66 60 59 60 65 67 64 64 78 95 101 97 95 96 95 92 88 88 89 90 91 92 88 84 85 88 89 92 98 100 99 99 98 97 97 96 96 94 90 88 87 84 81 81 80 74 71 71 69 68 69 68 67 69 67 66 67 66 62
50 55 69 81 76 63 54 52 58 63 61 61 76 95 100 97 95 93 93 94 96 96 94 89 88 86 80 76 74 72 70 76 90 98 100 101 101 99 99 99 98 98 95 93 92 88 84 84 83 78 74 74 72 70 70 68 68 70 70 70 74 76 70
44 43 52 68 72 61 49 46 48 52 58 67 84 98 100 99 99 96 93 96 99 99 95 91 87 81 75 73 76 76 74 76 81 81 83 90 96 98 98 99 100 100 99 97 97 94 90 87 85 82 80 78 77 78 78 76 76 78 78 77 79 81 77
44 42 43 51 59 55 46 41 42 43 47 60 82 99 101 99 100 99 97 100 101 99 96 94 92 86 75 70 77 87 90 87 80 72 69 77 90 98 99 98 99 100 100 99 99 99 96 92 89 89 87 84 84 88 89 88 87 86 85 85 87 87 83
49 47 46 49 58 58 46 39 40 41 40 49 75 98 102 99 101 100 96 95 94 93 92 90 90 84 68 58 63 74 81 82 81 81 78 76 82 91 96 97 98 99 100 101 100 101 100 99 98 98 96 92 91 94 95 95 96 95 92 90 88 85 81
57 56 56 57 62 61 50 40 38 41 40 44 67 96 103 99 99 97 92 91 91 87 85 84 85 80 65 54 49 51 62 79 89 92 90 84 83 86 89 91 90 88 90 93 95 98 99 98 99 98 98 98 97 97 96 94 94 92 87 84 83 80 77
63 63 63 63 65 64 57 46 40 43 43 41 59 90 102 98 98 97 94 95 95 90 88 87 86 82 74 68 61 53 63 86 99 99 97 96 95 93 90 86 80 82 91 95 96 98 98 96 96 95 94 94 92 90 89 88 88 87 87 91 93 92 90
67 67 67 67 67 67 64 56 48 48 48 45 59 89 103 98 98 99 95 92 91 92 94 92 88 85 83 81 75 68 72 90 100 100 100 101 99 97 94 85 74 79 90 91 90 96 100 98 97 97 97 97 97 97 96 95 96 95 97 100 100 96 92
70 68 68 68 67 67 67 65 59 57 58 52 56 79 98 99 98 99 94 88 88 91 94 91 87 88 91 90 85 80 85 96 102 100 100 101 99 100 100 92 80 75 74 71 74 86 92 92 92 93 92 92 93 95 97 99 100 99 99 100 98 95 91
74 73 71 70 70 70 70 70 65 63 65 62 56 67 88 99 100 97 92 87 88 90 90 87 84 84 85 85 83 85 93 100 101 100 100 100 101 101 99 93 87 84 81 80 85 92 94 93 93 89 82 74 69 68 71 75 79 82 89 96 95 90 90
79 77 75 74 74 74 73 73 69 64 64 66 63 64 78 93 99 96 92 89 86 85 83 81 80 79 77 77 80 89 98 102 100 100 101 99 100 102 97 91 90 93 94 95 97 97 95 94 91 84 75 67 60 55 54 55 56 58 71 88 95 92 92
86 84 82 79 79 79 78 76 75 71 67 69 69 65 71 84 87 82 81 83 80 79 81 81 79 77 75 75 78 87 98 101 99 100 101 100 100 101 98 96 98 98 98 98 98 96 94 93 91 87 84 79 72 66 63 64 65 65 71 81 90 93 93
94 92 91 89 87 87 85 81 78 77 73 73 74 71 74 82 79 71 75 84 85 83 84 84 81 79 77 76 78 85 96 101 101 100 100 100 100 100 100 100 101 100 99 98 97 96 95 94 92 91 89 86 82 77 73 73 74 77 80 82 85 90 92
99 98 97 96 93 89 86 80 76 75 74 75 76 75 75 76 74 75 84 92 93 89 86 84 84 84 82 83 85 90 96 100 100 100 100 100 100 100 100 100 101 101 101 100 99 98 98 96 92 89 87 85 83 79 75 73 73 76 80 84 86 88 91
98 98 98 98 95 89 84 79 75 74 75 76 77 79 76 70 68 79 94 98 94 91 89 88 89 89 89 92 95 97 100 101 100 100 100 100 100 100 100 100 101 101 101 100 100 99 97 95 91 87 85 84 80 77 74 73 75 77 79 82 84 85 88
95 94 94 93 90 85 80 76 74 73 73 75 77 79 78 71 66 77 96 102 98 97 97 97 97 97 98 99 100 99 100 99 99 100 100 100 101 100 100 101 101 101 101 101 100 98 95 92 88 84 83 81 79 78 76 74 74 76 76 76 77 77 78
92 92 91 89 86 82 78 75 73 72 71 73 75 77 79 78 72 74 87 98 100 100 99 97 98 100 100 98 99 100 101 99 99 100 101 101 101 101 101 101 100 101 102 100 98 96 93 89 85 82 81 79 77 77 77 77 77 77 75 76 77 78 77
88 88 88 87 85 81 78 76 75 74 72 72 74 76 77 78 76 76 83 92 95 92 90 90 93 98 99 99 99 100 99 98 98 99 100 100 100 100 100 101 101 100 100 98 95 92 89 85 83 81 80 79 78 78 79 79 79 79 79 79 80 82 84
89 86 85 85 85 84 82 78 76 75 75 74 74 75 76 78 81 83 84 88 90 89 90 92 94 96 96 95 93 92 91 91 91 92 94 95 95 95 96 98 99 99 98 97 94 91 88 84 83 82 82 82 81 80 79 77 76 77 79 78 78 83 85
94 92 89 88 89 89 90 88 81 77 79 78 76 76 76 76 77 77 77 81 87 92 97 97 95 93 92 90 89 88 88 87 86 86 87 88 89 91 92 93 94 95 95 94 93 91 90 88 87 85 83 82 81 79 78 77 76 78 78 77 79 84 85
92 94 95 97 96 94 94 95 91 86 85 86 85 83 81 79 79 82 86 90 92 97 101 102 99 97 95 93 91 90 88 86 84 82 82 82 82 85 88 89 89 87 86 86 87 87 87 87 87 86 84 83 82 80 78 78 77 77 78 78 81 85 84
85 85 88 94 101 100 96 95 95 92 90 91 93 94 94 94 94 96 99 99 98 100 103 102 100 99 96 93 92 90 88 85 82 80 79 78 77 78 82 85 86 83 80 80 80 82 83 84 85 87 86 85 83 81 79 78 77 77 77 78 80 84 85
82 81 80 84 94 101 101 99 97 96 95 95 98 100 101 101 100 100 100 100 101 103 104 101 99 99 96 92 91 89 86 84 82 80 78 77 76 76 76 78 79 77 77 78 78 79 81 82 84 85 84 83 82 81 81 80 78 78 77 77 78 80 81
80 80 79 79 84 91 96 98 99 99 100 100 101 100 100 100 100 100 100 100 100 102 103 101 100 99 97 93 91 88 85 83 81 79 77 76 76 76 74 73 72 72 72 74 75 76 78 80 82 83 83 83 82 82 82 82 81 80 80 80 82 82 80
80 80 80 81 81 84 88 90 90 93 96 99 101 101 100 100 100 100 100 101 101 101 101 100 99 99 96 94 91 88 86 85 82 79 78 77 77 76 75 73 73 72 72 71 72 75 78 81 84 86 85 84 83 83 83 84 84 84 83 83 84 83 82
83 82 80 80 80 80 83 85 85 85 87 91 97 101 101 100 100 100 100 100 101 101 101 100 100 98 95 93 90 88 86 85 83 80 78 78 78 77 75 75 75 75 74 73 73 75 78 81 85 86 85 84 85 85 86 87 86 85 84 84 84 83 82
87 84 81 80 79 78 80 82 83 84 84 85 90 99 101 100 99 100 100 100 100 99 99 99 99 98 95 93 91 89 86 84 83 81 79 78 78 76 75 75 76 77 77 77 78 79 81 84 87 87 86 87 89 88 88 87 85 84 83 82 83 83 82

ECMWFFLT1_925_rhum_318.txt.gz
RH
67 67 68 68 68 69 69 69 70 69 69 67 66 67 69 70 71 73 75 78 79 80 83 85 87 90 93 96 97 98 99 100 100 99 97 97 97 96 96 97 100 100 96 91 92 94 94 96 97 94 91 90 89 90 92 91 89 87 84 82 81 82 85
63 64 64 64 65 65 65 66 67 68 69 70 69 68 69 69 70 71 72 75 76 78 81 82 83 84 86 88 90 92 95 97 98 98 97 97 97 97 96 97 99 100 98 95 93 95 96 98 99 98 96 94 91 90 92 92 90 89 86 84 82 80 79
59 60 61 61 62 62 63 63 63 65 67 69 70 69 69 70 72 73 74 76 78 80 82 82 82 84 86 86 85 86 89 92 94 95 95 95 96 97 97 96 98 99 99 98 95 94 95 96 98 98 96 94 91 89 87 86 85 86 85 84 83 79 76
54 55 56 57 57 58 59 60 60 61 63 66 69 70 71 72 73 75 76 76 78 80 84 87 88 89 91 91 88 86 86 88 90 92 93 93 94 95 95 95 96 98 98 98 97 93 91 92 93 94 95 93 90 88 85 82 79 78 79 76 74 72 70
47 48 47 48 50 51 53 56 57 57 58 61 65 69 72 75 77 78 77 77 77 79 84 91 94 96 99 99 96 93 92 90 89 91 93 93 93 94 95 94 93 95 98 99 98 94 90 89 89 89 90 90 90 88 85 83 79 76 74 70 67 64 62
40 41 41 41 42 43 45 47 49 52 53 55 58 63 68 72 75 76 77 77 77 76 79 83 86 89 94 99 100 99 99 97 94 93 93 93 93 94 95 95 94 94 97 98 99 97 92 90 89 88 87 86 87 87 84 81 78 75 73 71 68 65 62
37 37 38 38 38 39 39 39 40 45 48 49 51 55 60 64 67 69 70 71 74 76 77 77 77 77 80 87 96 100 100 100 99 98 96 94 95 93 92 94 95 94 97 99 99 97 95 92 89 89 87 84 83 84 82 79 77 73 70 68 67 66 63
38 37 37 37 37 38 38 37 36 37 42 46 45 45 53 61 64 66 65 63 65 70 73 73 73 77 83 86 91 97 100 99 99 99 98 97 97 97 96 96 97 96 97 100 101 99 96 94 92 91 90 86 83 84 83 82 80 76 71 69 68 67 65
45 44 41 39 39 38 38 38 36 35 39 40 39 48 67 82 86 85 82 74 64 61 67 72 72 78 93 99 95 93 92 89 86 82 83 89 95 99 100 98 98 100 99 100 101 99 97 95 94 91 90 89 89 89 87 86 83 79 75 73 70 69 69
55 56 53 49 46 42 41 40 38 39 38 37 52 77 92 99 100 98 98 93 81 71 71 78 77 78 92 101 100 96 90 83 76 66 68 85 96 99 102 101 99 99 100 101 100 99 98 98 96 91 89 90 90 89 89 87 85 83 80 76 73 73 73
63 64 62 60 56 50 49 46 43 45 41 41 69 98 100 98 101 101 100 100 98 92 86 86 87 89 98 102 100 99 95 90 82 66 67 86 96 92 93 99 102 101 99 100 100 100 99 99 98 94 91 89 89 89 90 90 89 88 84 82 82 82 79
67 68 68 68 65 60 58 56 52 53 48 47 73 99 100 98 101 101 100 100 100 101 97 93 88 87 92 97 100 101 99 96 86 68 64 79 90 88 84 86 94 99 101 101 99 99 100 100 99 97 94 91 90 90 92 92 92 91 89 88 88 86 84
69 71 72 73 72 69 67 64 62 62 58 58 78 96 98 99 100 99 102 102 99 100 101 96 89 79 69 71 85 98 99 94 86 73 62 62 70 80 83 78 76 81 92 100 101 100 100 99 100 100 98 98 97 95 94 92 92 93 93 93 93 90 87
73 75 76 76 77 76 74 72 70 69 66 68 81 92 94 97 99 98 100 101 100 101 100 95 92 82 62 49 57 75 86 88 85 80 71 61 59 65 70 70 66 64 73 86 94 99 101 100 101 101 100 100 100 99 97 95 94 94 95 95 95 93 89
79 80 81 81 82 82 80 78 76 75 74 74 81 89 91 94 95 95 96 98 98 100 99 94 90 81 65 51 46 58 81 94 91 86 82 79 81 81 79 76 70 66 72 78 82 87 91 91 92 94 96 97 97 98 99 100 98 97 97 97 96 94 91
77 79 80 79 81 85 86 84 83 83 81 80 82 87 89 90 91 92 93 92 90 90 90 89 85 76 66 58 49 56 82 99 96 90 88 88 90 95 95 86 76 79 88 91 91 92 92 92 93 94 96 96 95 96 98 100 101 99 99 100 99 96 91
65 68 72 75 79 87 91 90 90 90 87 85 87 91 91 89 88 90 91 91 89 88 87 84 78 70 68 64 52 53 76 96 97 92 90 88 89 94 95 82 76 87 94 88 88 90 88 91 95 96 99 100 100 101 100 100 101 99 99 101 99 96 90
72 75 80 85 88 91 94 94 93 92 92 91 93 95 95 92 90 91 93 93 91 90 91 88 79 70 71 72 61 56 72 94 101 95 89 89 92 100 97 79 73 89 96 87 83 78 69 69 72 74 78 80 85 94 99 100 101 99 99 101 99 95 91
89 93 94 97 98 96 96 96 93 92 93 92 92 96 100 99 97 97 96 95 93 92 91 90 83 75 74 76 70 65 75 93 102 99 95 94 97 103 99 85 81 91 97 93 88 78 67 64 65 68 74 74 76 85 93 97 99 98 99 102 101 99 96
99 101 99 99 100 98 96 93 89 86 83 80 81 86 93 98 101 102 100 98 98 97 95 92 89 84 79 77 75 74 81 94 101 100 99 98 100 103 98 91 91 96 98 97 91 83 80 79 77 78 83 84 83 85 88 90 91 89 87 90 95 99 99
100 100 99 97 95 93 89 86 82 79 77 77 78 79 83 92 98 100 102 103 101 102 101 96 90 86 83 83 83 80 81 90 96 97 95 94 96 100 99 97 98 99 99 100 97 94 94 91 87 85 86 85 85 83 79 76 73 71 73 78 84 91 94
100 99 98 96 93 89 86 82 79 78 77 78 80 81 82 86 89 90 97 103 103 102 100 94 88 86 84 86 91 88 86 92 96 95 93 92 91 95 100 101 100 99 100 101 100 100 100 96 93 93 91 91 90 83 75 69 66 69 76 81 83 87 91
101 100 100 99 96 92 87 83 80 80 79 78 79 82 83 82 81 81 87 98 103 102 97 90 86 86 84 87 95 98 97 99 97 90 88 89 89 92 98 101 101 101 102 102 101 102 101 99 97 96 95 92 89 82 76 73 72 74 79 83 83 85 90
101 101 102 102 100 96 92 88 86 85 84 81 81 83 83 83 81 78 79 88 96 98 94 88 86 88 91 92 97 101 102 102 99 95 93 95 96 97 99 101 101 100 100 100 100 101 100 97 96 96 97 95 91 89 86 81 77 77 79 82 83 85 89
103 102 103 103 102 100 95 92 90 90 90 88 85 83 83 84 85 81 77 80 86 89 89 85 83 89 98 101 100 100 100 97 97 99 100 100 101 102 102 102 102 101 101 101 101 101 100 98 96 96 95 93 92 92 90 85 80 80 82 82 83 85 88
104 103 103 102 101 99 97 94 92 91 90 89 87 83 81 82 83 81 79 79 84 89 90 84 78 82 91 96 96 95 94 92 94 99 102 100 99 99 99 99 99 99 101 102 101 100 100 98 96 95 93 91 91 90 89 88 87 86 85 85 86 88 88
102 102 103 102 100 99 98 97 95 93 91 90 90 88 86 86 85 82 79 80 85 91 89 81 75 74 78 83 88 89 90 92 95 96 96 94 91 89 88 89 91 94 99 103 103 102 101 99 98 97 96 95 94 93 92 91 90 88 87 86 87 90 90
101 101 101 103 104 102 102 101 98 95 94 93 93 93 94 95 95 92 87 84 88 93 92 84 78 77 79 82 87 88 88 89 90 89 89 89 88 89 92 94 95 96 97 98 101 102 102 100 100 100 100 98 97 98 94 89 88 91 92 90 91 93 93
103 104 103 103 104 104 104 104 99 94 95 98 100 100 100 100 101 99 95 90 90 94 95 91 87 86 86 87 89 91 92 91 91 92 93 94 94 95 96 94 92 90 88 88 93 98 101 101 101 101 101 100 101 99 92 86 89 96 97 94 93 94 92
99 102 103 104 104 103 102 103 101 98 98 99 99 100 101 101 101 101 101 98 96 96 98 98 96 95 93 93 95 98 98 96 96 96 95 93 92 92 90 88 86 85 85 86 90 94 98 101 103 103 102 103 102 97 88 86 92 96 96 92 91 90 87
93 97 99 101 103 103 102 100 98 95 92 90 90 95 100 103 102 101 101 101 101 101 102 101 101 100 98 98 100 101 99 97 97 98 96 94 93 91 90 91 89 86 85 87 91 94 97 100 103 104 103 102 102 99 94 94 96 94 91 89 91 93 91
94 98 99 98 98 100 100 97 94 91 90 92 94 98 100 101 101 101 101 100 100 102 102 101 101 101 100 101 101 100 98 97 97 97 96 96 97 96 95 94 91 87 86 89 92 94 96 98 99 101 101 99 100 102 101 99 96 90 87 89 93 98 99
89 94 96 96 95 96 97 96 95 95 94 92 94 96 99 100 101 100 100 100 100 102 102 101 102 102 101 101 100 98 96 97 97 97 97 98 98 98 96 93 91 91 91 92 92 93 94 95 95 96 99 99 99 99 98 95 91 89 92 97 101 102 100
87 88 91 93 92 91 92 92 91 92 90 86 86 88 90 95 100 101 100 100 101 102 101 100 101 101 101 100 99 98 98 98 98 98 99 100 99 99 98 96 94 95 95 93 92 92 93 93 94 96 100 100 96 93 93 94 95 96 99 101 101 99 96
92 88 88 91 90 90 91 90 89 88 86 84 84 82 83 92 101 103 101 100 100 100 101 101 100 100 100 99 98 98 98 99 99 99 100 100 100 100 99 98 97 97 96 93 92 92 91 91 92 94 95 93 88 87 90 94 96 97 98 97 97 96 96
97 91 88 88 90 91 91 91 89 88 86 85 84 82 85 97 105 103 100 100 100 99 100 101 101 100 100 100 100 100 99 99 100 100 99 100 101 101 101 100 99 98 96 94 93 92 90 90 91 91 89 87 85 85 89 92 93 94 94 94 95 96 96

ECMWFFLT1_925_rhum_324.txt.gz
RH
40 39 37 36 36 35 35 35 36 37 39 41 44 47 49 52 53 55 58 60 63 65 66 67 67 68 72 74 75 77 80 80 81 83 83 84 88 91 93 96 99 100 99 93 89 88 88 84 81 80 81 86 90 92 93 95 96 98 98 96 94 92 90
32 31 30 29 29 28 28 29 29 31 32 32 34 37 40 43 46 49 52 55 59 63 67 70 68 67 70 70 69 71 74 75 78 85 88 86 89 94 93 95 99 100 100 98 93 91 90 87 84 80 77 79 81 83 85 87 89 92 94 94 94 93 90
27 26 26 26 26 26 26 26 26 27 28 29 30 32 34 38 40 43 47 50 55 61 65 68 68 69 73 72 69 67 67 70 72 77 85 87 89 94 93 91 96 100 100 100 98 96 95 93 88 82 77 77 77 77 79 81 82 84 86 88 90 91 90
26 26 27 27 27 28 27 27 27 28 29 29 30 31 32 35 37 38 41 44 49 55 60 64 65 67 73 77 76 70 68 75 81 84 86 84 84 89 89 88 92 95 98 100 100 98 99 99 94 86 79 77 76 76 77 78 79 79 79 80 82 84 86
31 31 31 32 32 32 33 33 32 31 31 32 32 32 32 33 34 35 37 38 40 45 52 57 58 61 69 79 82 80 80 88 95 98 96 95 93 88 84 82 78 80 90 100 101 99 100 100 96 91 84 78 81 85 81 75 74 76 78 78 78 80 82
37 37 37 37 38 38 39 39 39 39 38 37 36 36 36 36 36 36 39 41 39 39 44 50 53 54 61 74 84 90 95 98 100 100 99 100 100 91 84 81 74 74 89 100 101 100 101 100 98 96 89 82 86 92 89 84 81 78 80 83 81 79 82
43 43 42 41 41 41 41 42 44 46 46 45 46 46 45 45 46 48 50 51 50 48 49 55 63 64 63 69 77 86 96 100 100 101 101 100 100 96 93 93 91 91 97 101 100 100 100 100 100 98 93 88 89 92 91 95 96 88 83 87 88 85 86
50 50 49 48 46 45 44 44 45 49 52 52 49 49 55 62 69 73 75 77 77 74 68 70 79 84 83 79 74 77 93 102 100 99 100 100 100 100 99 100 100 100 100 99 100 101 100 100 100 97 94 91 91 94 95 96 101 98 90 89 93 94 92
55 54 54 53 52 51 51 50 50 55 60 57 53 60 74 83 86 89 93 95 96 95 90 87 90 95 97 95 85 77 82 93 98 101 102 100 99 100 101 101 100 100 100 100 100 100 99 100 100 96 94 93 93 97 100 98 98 99 95 91 91 93 95
57 57 57 57 56 54 53 51 50 53 54 55 67 83 92 93 92 92 94 95 96 99 99 97 96 97 98 101 98 84 70 69 79 90 96 100 102 101 99 100 101 100 99 100 101 101 100 100 100 96 96 99 98 99 101 100 99 100 98 94 90 90 94
56 56 54 52 50 46 44 41 40 43 41 46 71 92 93 93 95 93 93 93 95 99 100 99 100 100 100 101 97 86 69 60 64 70 75 82 92 100 102 100 101 102 102 100 100 100 100 99 98 96 96 100 100 98 98 98 99 101 100 99 98 96 94
47 44 41 40 38 36 35 34 34 38 37 40 64 90 96 96 97 95 95 96 97 100 100 98 98 99 100 99 94 86 76 70 68 67 66 65 71 84 98 102 101 99 99 101 101 99 100 101 99 98 98 99 100 99 97 95 96 99 100 101 101 99 96
35 34 33 34 34 33 33 33 33 37 37 37 58 89 101 99 99 100 100 100 99 99 97 95 95 95 96 96 93 88 83 79 77 74 72 70 66 68 79 93 101 96 89 93 101 101 100 99 99 101 100 94 92 93 92 93 96 99 100 100 100 100 100
32 33 33 33 35 34 33 34 34 36 37 39 60 91 101 99 101 101 100 101 99 98 96 95 95 95 95 95 94 91 87 84 82 78 78 81 78 68 62 70 88 95 86 84 94 101 102 100 98 101 97 84 81 88 92 96 100 101 100 100 100 100 98
33 33 34 34 35 34 33 33 34 37 38 42 65 93 101 99 101 100 99 101 99 98 98 96 94 93 93 93 93 93 92 88 83 81 85 92 90 79 64 56 68 87 91 85 87 92 94 90 85 85 86 81 85 95 98 99 101 100 100 101 100 99 96
34 35 35 34 35 35 34 34 36 39 41 48 73 98 101 99 101 101 101 102 99 98 96 92 92 91 89 91 90 89 89 88 85 87 94 100 98 90 77 60 57 79 98 97 93 93 91 90 88 89 93 95 98 102 101 100 101 100 99 101 100 98 96
35 35 36 35 35 36 36 36 37 42 45 55 80 102 103 100 102 100 97 94 90 90 89 88 90 90 90 92 90 87 87 87 91 97 100 101 101 99 95 77 59 73 98 102 98 98 96 95 95 94 95 96 95 95 96 98 99 97 97 101 100 95 91
37 37 36 37 37 38 39 39 39 44 48 54 73 95 101 98 96 92 88 85 83 84 87 89 89 88 89 89 86 85 87 88 93 100 101 100 100 100 103 95 75 73 89 95 93 93 92 89 87 85 81 78 75 76 80 87 94 94 96 102 101 97 95
38 38 37 38 40 40 42 42 42 45 48 52 63 79 88 88 87 87 86 86 89 92 94 93 87 81 81 82 81 82 86 88 93 100 102 101 101 100 101 100 91 84 87 91 93 95 95 95 94 92 86 78 71 70 72 80 89 92 96 101 100 99 101
41 41 40 41 42 42 43 46 46 46 49 54 59 69 78 82 86 89 88 91 97 100 101 100 93 82 78 79 78 79 85 88 92 99 101 99 100 101 99 98 98 96 93 93 95 99 100 100 101 100 97 88 81 79 78 78 84 92 98 103 102 98 101
43 44 42 41 42 43 45 49 52 51 51 53 57 64 75 83 87 89 89 94 100 102 101 102 99 89 82 80 78 79 86 92 95 99 102 101 100 101 100 100 102 101 98 97 99 102 102 101 101 101 99 95 90 87 83 80 82 88 95 100 100 97 98
45 46 45 44 44 47 49 53 57 56 52 51 54 61 71 81 85 87 90 96 102 102 100 102 101 93 85 81 80 83 91 99 100 100 100 100 100 101 99 100 102 100 98 99 100 102 101 100 100 100 99 98 93 87 83 81 80 81 84 91 96 97 100
48 53 55 52 48 49 52 56 59 60 56 52 54 60 69 77 82 84 87 91 96 97 96 97 97 93 86 81 79 82 93 101 101 100 100 99 100 102 101 101 102 100 98 98 99 101 101 99 99 100 99 96 91 86 84 83 81 80 82 86 91 93 95
58 66 71 67 58 50 50 55 59 60 58 54 54 59 66 73 79 82 85 89 91 92 93 93 93 93 91 86 80 82 93 102 100 100 101 96 94 97 97 97 100 101 100 101 101 100 101 99 96 97 97 92 88 86 85 83 80 81 84 86 88 89 90
73 78 82 81 71 56 50 56 60 59 58 57 56 58 63 71 79 83 87 91 93 92 93 93 93 94 94 90 85 84 92 100 100 100 102 95 84 81 82 83 87 91 94 98 99 98 100 98 93 91 91 88 86 88 87 84 83 84 87 89 89 90 92
82 85 86 84 78 66 59 61 65 63 61 61 62 60 62 72 83 88 90 92 92 91 92 93 94 96 94 90 86 84 88 97 100 100 102 100 89 80 79 82 86 89 90 92 92 92 92 88 83 83 85 87 91 94 92 88 89 91 92 91 93 94 92
84 87 88 84 80 74 69 69 73 71 67 69 75 74 72 79 90 95 96 96 95 94 94 93 93 94 94 94 92 88 87 95 101 101 101 100 91 83 84 89 93 97 98 96 95 95 93 89 87 90 94 96 100 99 91 87 93 98 96 94 99 102 96
84 83 83 83 82 82 81 81 80 78 76 82 91 94 92 95 99 99 100 101 99 98 98 96 96 95 95 95 96 91 87 89 95 99 101 99 91 86 88 92 97 101 100 97 97 100 101 99 99 101 100 99 99 94 85 83 92 99 98 98 101 102 99
83 76 74 79 81 87 95 92 82 81 88 96 100 101 101 102 102 101 102 102 101 102 102 101 100 100 99 98 98 96 93 90 89 91 92 92 90 90 91 93 95 95 92 90 94 99 100 100 100 99 96 95 96 92 84 84 93 98 100 102 103 100 98
77 71 73 79 77 80 91 93 85 87 98 103 102 101 101 101 101 101 101 101 101 103 103 102 102 102 101 101 100 99 97 95 93 91 87 84 84 87 88 89 90 89 88 89 92 95 96 96 97 96 96 97 99 96 88 87 95 101 102 101 101 100 98
74 70 73 78 75 73 81 89 92 94 96 99 101 102 101 101 101 101 101 101 102 104 104 104 103 102 101 101 100 99 97 95 96 96 92 88 87 87 88 90 89 89 90 92 93 94 95 96 98 99 99 100 102 101 96 94 97 102 104 101 100 101 99
77 75 74 75 77 77 78 82 89 93 96 99 103 103 102 102 102 102 101 101 102 104 104 103 102 101 101 101 101 99 96 95 96 96 96 96 95 93 92 93 92 91 93 95 95 95 97 98 98 100 101 102 103 104 103 101 100 101 103 102 100 101 100
78 78 77 78 80 81 80 80 85 92 97 101 102 101 100 101 102 102 102 102 103 103 102 101 101 101 101 101 100 98 96 95 95 95 96 98 99 96 93 92 93 95 97 97 96 97 98 99 100 101 103 105 105 103 103 102 100 100 103 104 102 100 100
84 83 84 85 85 86 85 85 88 90 92 93 94 93 92 93 99 103 102 101 102 103 102 100 100 100 100 101 100 98 96 96 95 95 96 97 97 96 92 90 93 96 96 94 95 97 98 99 100 102 104 106 105 102 102 102 101 100 102 103 101 100 100
93 90 89 91 91 90 88 88 89 89 89 89 90 89 90 95 102 104 101 99 99 100 101 102 102 102 101 102 101 99 98 97 96 95 96 95 95 94 93 92 93 94 93 92 94 95 96 97 99 101 104 106 105 102 101 101 101 101 102 102 101 101 100
96 94 94 94 93 90 88 88 88 88 88 88 89 92 97 103 104 102 100 100 99 99 100 102 102 103 103 103 103 103 102 101 99 98 97 97 97 97 97 96 95 93 91 91 93 94 95 97 99 101 103 106 104 102 101 102 102 102 104 104 104 103 101

ECMWFFLT1_925_rhum_330.txt.gz
RH
39 34 30 26 23 22 21 21 20 20 21 21 21 21 22 23 22 23 24 25 26 28 30 31 32 34 35 37 41 46 51 55 52 53 65 76 82 80 81 92 95 85 76 71 67 66 65 68 72 74 73 74 77 71 62 62 63 65 73 79 79 78 83
29 26 23 22 21 21 21 21 21 21 21 21 21 21 21 22 22 22 22 22 23 24 24 25 25 26 28 29 31 35 38 40 44 58 69 70 77 82 80 88 97 90 81 75 71 67 65 66 69 71 70 71 73 69 61 58 58 68 82 83 78 80 84
24 23 23 22 23 23 22 23 22 22 22 22 22 23 23 23 23 23 24 23 24 25 25 26 26 26 27 28 30 31 33 44 55 68 78 75 78 89 88 87 95 96 90 84 78 72 68 64 64 66 67 69 72 70 68 69 70 77 85 85 85 87 87
24 25 25 24 24 23 23 23 23 23 23 24 25 25 25 26 26 27 28 28 28 28 29 30 30 30 30 29 31 30 36 57 66 69 86 95 91 95 99 95 97 100 97 93 86 78 73 68 66 66 66 70 72 71 72 75 77 81 85 88 87 86 88
27 26 25 24 23 23 22 22 23 24 25 25 26 27 27 28 29 30 31 32 33 33 33 33 34 36 37 35 36 38 43 53 53 54 79 99 98 98 100 99 99 99 99 98 93 86 79 72 69 67 66 69 71 71 70 67 68 78 87 91 86 81 87
28 26 25 24 23 22 23 23 24 24 26 26 26 27 28 29 31 34 36 38 39 39 40 41 41 45 50 50 50 53 57 57 53 55 72 90 98 100 100 100 99 96 97 98 94 89 82 73 69 67 63 63 68 74 72 66 67 76 82 85 82 79 83
29 27 26 25 25 24 24 25 26 26 26 26 27 27 28 30 34 38 41 43 46 50 52 54 56 58 64 68 69 72 75 75 76 80 87 94 100 100 99 100 98 95 94 91 86 82 77 69 65 62 59 59 68 76 75 73 76 74 69 71 75 78 80
29 28 27 26 26 26 27 27 27 27 26 27 28 28 30 36 43 47 50 51 54 61 66 71 75 73 72 76 81 83 86 90 94 98 100 100 100 99 100 99 95 92 89 81 75 73 71 68 64 60 58 58 62 66 66 71 78 75 67 67 70 75 76
30 28 27 27 27 27 27 28 27 26 27 28 27 29 33 38 43 47 50 53 59 67 73 77 82 82 77 80 88 90 92 95 98 100 100 100 99 100 100 100 96 92 87 81 77 72 67 65 62 57 56 57 59 61 63 72 81 78 70 67 68 70 69
33 30 28 28 28 28 27 28 27 27 28 28 32 45 54 52 49 48 49 55 65 76 84 86 88 89 84 84 91 95 96 98 99 99 100 100 101 101 99 100 100 94 89 85 82 76 71 69 67 63 62 62 63 65 66 73 82 80 71 65 64 62 60
34 30 29 28 28 29 29 29 28 28 29 28 37 60 79 81 79 78 74 73 79 87 95 98 98 98 97 94 95 98 99 101 99 96 94 94 96 101 101 100 101 98 94 90 86 83 81 78 76 74 70 67 67 66 65 72 82 80 70 64 62 60 56
31 28 28 28 29 29 29 29 29 28 29 29 33 52 80 95 98 100 98 96 97 98 98 100 98 97 98 96 93 89 86 88 86 82 84 87 90 96 99 99 100 100 99 96 93 91 90 87 86 85 81 78 77 75 74 78 83 80 73 68 67 67 64
28 28 29 29 29 29 29 29 29 28 29 30 28 41 75 99 99 94 94 91 89 85 81 86 91 91 89 89 85 75 65 64 66 66 70 76 80 85 88 91 95 98 100 101 99 98 97 94 94 93 90 88 91 93 92 90 85 78 74 74 76 77 79
28 29 29 29 29 29 29 28 29 29 28 31 29 35 66 92 85 71 66 60 56 54 53 62 73 78 76 72 67 60 54 55 59 62 66 70 74 77 78 79 82 85 89 92 94 98 100 99 99 101 99 99 101 98 91 87 83 80 81 86 90 92 94
30 29 29 30 28 29 30 28 30 31 29 33 32 33 60 85 75 56 48 41 38 38 40 45 55 61 61 56 51 51 53 58 64 69 74 77 78 77 79 83 84 83 81 77 77 84 89 88 92 98 97 93 89 83 79 84 91 95 97 97 95 93 90
30 30 30 30 30 30 31 31 32 33 32 34 32 35 59 78 68 51 44 39 36 37 39 42 48 55 56 54 52 51 54 61 69 76 81 83 82 83 87 91 93 94 91 80 77 86 90 87 89 93 92 87 83 83 87 96 101 99 95 90 83 78 75
32 32 32 32 32 32 32 33 35 34 33 35 34 38 55 66 64 60 54 44 38 39 41 42 45 50 55 57 55 54 58 64 71 79 85 88 90 93 96 96 95 98 99 89 84 90 94 93 94 94 93 94 97 100 100 100 99 92 83 78 72 66 64
35 34 34 33 33 34 34 34 35 35 34 35 36 39 47 59 70 72 61 48 43 43 45 47 48 50 56 59 59 61 66 70 76 87 95 98 99 100 100 100 98 99 100 96 90 82 75 76 81 84 87 87 89 95 97 97 98 91 80 75 69 63 62
36 35 34 34 34 35 35 34 34 35 35 36 38 40 47 63 80 80 68 60 59 59 59 59 59 59 61 63 65 68 71 72 77 91 100 100 100 100 99 101 101 100 99 100 99 94 86 81 77 79 85 86 83 86 90 93 98 96 85 77 73 68 67
36 35 36 36 36 35 34 33 33 35 36 37 39 41 47 62 76 79 74 70 69 71 72 71 72 73 72 72 73 73 71 68 73 89 101 101 99 101 100 100 100 100 100 100 100 100 100 96 85 80 86 91 90 90 88 88 95 99 93 86 81 76 74
38 38 37 36 34 33 33 33 33 35 38 40 41 43 46 54 61 65 69 74 76 77 80 80 81 83 82 80 78 75 75 76 79 91 101 101 99 100 100 100 100 100 100 101 100 99 99 98 93 89 91 94 95 95 95 93 95 99 100 97 91 84 78
40 39 36 34 34 33 32 34 34 35 38 40 42 44 46 50 53 54 64 81 89 87 87 87 84 82 80 76 74 73 77 85 92 98 101 101 101 101 100 99 101 100 99 100 99 94 89 87 86 84 84 86 88 91 96 100 100 100 101 101 98 91 87
39 38 36 35 34 32 31 32 34 35 38 40 42 44 46 50 53 54 63 82 93 92 89 87 84 81 79 76 75 74 76 86 97 101 101 101 101 100 100 100 100 99 100 100 97 90 84 81 79 77 75 77 81 87 95 101 102 100 100 101 98 92 89
42 40 38 36 34 32 31 32 32 34 36 39 41 44 47 52 56 58 62 74 85 90 92 94 91 86 81 77 75 75 81 92 100 100 100 102 101 99 100 101 100 100 100 99 95 89 82 78 76 73 71 73 78 82 87 91 91 89 90 93 92 87 82
47 42 41 39 35 32 31 32 33 34 35 38 41 44 48 53 58 61 65 71 78 85 90 92 85 77 74 73 72 78 91 101 102 100 100 100 99 101 101 99 99 99 97 94 91 87 82 78 76 73 73 77 80 78 79 83 84 83 83 84 86 84 77
48 46 45 42 36 33 33 33 34 36 38 41 43 45 49 55 59 62 67 73 76 77 78 79 77 76 78 79 80 87 97 100 98 99 98 93 93 100 102 98 95 95 94 90 87 85 83 80 77 75 77 83 85 83 83 88 91 91 89 88 89 85 79
47 47 48 47 44 43 43 40 36 38 43 47 50 53 58 66 73 77 81 86 88 87 88 90 93 94 92 86 83 87 91 91 92 98 100 96 96 100 101 97 94 95 97 95 90 88 87 84 82 84 86 87 88 88 89 92 96 95 90 86 87 85 81
48 46 47 52 55 56 57 52 43 40 43 49 54 59 67 79 91 96 97 98 99 99 99 100 100 100 99 96 94 94 95 95 96 99 100 99 97 96 97 98 98 98 100 100 98 97 95 92 89 90 90 88 87 88 90 93 97 96 89 83 84 85 80
48 46 48 54 57 59 63 59 50 45 46 49 53 58 67 84 98 101 99 100 100 100 100 101 99 97 95 94 94 95 92 88 88 90 92 94 94 92 91 93 98 99 98 98 100 100 97 94 92 91 89 87 85 84 85 88 91 90 87 85 86 85 79
46 46 52 57 56 54 56 56 52 52 54 55 58 61 67 83 98 102 100 100 101 100 100 100 97 91 87 85 85 85 82 77 78 80 82 84 87 88 86 86 89 92 93 94 97 98 96 94 92 88 86 85 83 79 78 80 85 88 88 88 86 81 76
44 45 51 57 57 56 56 56 56 58 60 62 65 66 70 84 98 102 100 100 100 100 101 99 93 87 84 82 81 80 79 76 77 79 79 79 79 79 82 85 85 84 87 90 93 94 94 93 90 87 85 84 83 79 75 77 82 86 88 88 86 81 76
42 44 48 54 58 60 61 60 61 64 68 71 73 73 75 86 98 102 101 100 101 101 101 99 92 86 83 81 80 80 79 78 78 79 79 80 79 76 77 80 82 83 86 88 88 89 90 90 88 88 87 86 84 83 80 79 81 83 85 86 85 82 81
43 45 47 51 54 56 58 60 65 71 75 77 79 78 77 80 89 95 95 98 101 101 99 95 89 85 83 82 81 82 81 79 80 81 81 81 81 79 77 77 82 89 93 92 90 91 90 89 89 89 89 88 88 88 85 82 81 80 81 83 83 81 82
49 47 46 48 51 55 60 65 70 76 79 80 82 82 79 80 88 93 92 94 101 103 99 93 89 85 84 83 83 83 83 82 82 84 84 84 84 84 83 83 87 93 95 94 93 93 93 92 92 91 90 88 87 87 86 84 84 81 80 80 79 78 78
55 49 49 53 56 58 63 70 75 79 82 83 84 84 83 88 96 98 93 92 97 99 97 93 90 87 85 84 84 84 84 85 85 86 87 86 86 86 88 88 89 90 92 93 94 93 93 94 95 95 94 91 88 87 86 84 83 81 79 80 80 78 78
65 62 63 64 60 55 58 67 77 82 84 85 85 84 90 98 101 96 90 89 90 90 90 90 89 88 86 86 86 86 86 86 88 89 89 90 89 89 90 90 90 89 91 94 94 93 95 97 97 97 97 95 93 92 90 87 85 83 81 82 83 82 80